sat.trackr.live / text

‹ back to catalog

STARLINK-34364

NORAD 64495 · 2025-133Z

PAYLOAD ACTIVE UNKNOWN

§ Identity

Operator
Country
US
Launch date
2025-06-23
Launch site
AFETR
Launch vehicle
Mass (kg)
RCS (m²)

Purposes: comms

External: N2YO · Heavens-Above · Gunter

§ Orbital elements

Epoch: 2026-05-25T04:41:26.774592Z

Period
93.85 min
Inclination
53.1587°
Eccentricity
0.0001372
Mean motion
15.34406085 rev/d
Perigee alt
461.7 km
Apogee alt
463.6 km
Semi-major
6,840.8 km
B*
7.4747e-4
RAAN
118.4398°
Arg perigee
83.4823°
Mean anomaly
276.6335°
Rev number
5,294

§ Raw data

STARLINK-343641 64495U 25133Z   26145.19544878  .00024967  00000+0  74747-3 0  99952 64495  53.1587 118.4398 0001372  83.4823 276.6335 15.34406085 52942

JSON: /api/v1/satellites/64495 · /tle

For live sub-satellite position, see the globe view (requires WebGL).

§ Visibility from observer

Set your observer location to see the next 7 days of passes ≥ 10°. The values pass through the URL so the page stays shareable.

No JS? Fill the form by hand. The geolocation button needs JavaScript.